Total_Precipitation_Accumulation
2.13 2.37 2.72 3.10 3.31 3.48 3.59 3.89 4.12 3.88 3.44 3.06 2.61 2.46 2.40 2.18 1.99 1.90 1.76 1.92 1.88 2.12 2.43 2.21 2.47 2.12 2.11 2.26 2.28 2.48 2.41 2.15 2.08 2.49 2.57 2.03 1.59 1.62 1.54 1.54 1.74 1.70 1.77
1.74 1.84 2.00 2.32 2.46 2.70 3.00 3.33 3.57 3.39 2.86 2.64 2.48 2.38 2.34 2.16 2.15 2.07 2.07 1.87 1.87 2.08 2.12 2.45 2.26 2.26 2.34 2.38 2.47 2.57 2.52 2.22 2.15 2.57 2.93 2.55 2.46 2.15 1.43 1.52 1.65 1.66 1.90
1.47 1.55 1.58 1.67 1.98 2.55 2.77 2.67 2.89 3.03 2.76 2.64 2.57 2.50 2.47 2.27 2.34 2.31 2.22 1.86 1.74 1.77 1.94 2.10 2.11 2.33 2.12 2.45 2.68 2.61 2.67 2.62 2.39 2.43 2.84 2.86 2.76 2.31 1.80 1.45 1.46 1.65 2.01
1.04 1.22 1.25 1.35 1.57 1.87 2.14 2.46 2.77 2.85 2.74 2.59 2.37 2.25 2.06 1.99 2.02 2.06 2.08 1.96 1.85 1.72 1.81 1.94 2.22 2.38 2.11 2.60 2.24 2.35 2.58 2.74 2.52 2.42 2.26 2.34 2.56 2.66 2.45 1.97 1.56 1.54 1.74
0.64 0.84 0.97 1.10 1.18 1.32 1.69 2.21 2.67 2.91 2.73 2.43 2.26 2.31 2.13 2.08 2.06 1.98 2.20 2.06 1.91 1.75 1.66 1.91 2.19 2.31 2.20 2.35 2.40 2.67 2.54 2.47 2.44 2.47 2.47 2.55 2.52 2.33 2.50 2.43 2.12 1.85 1.44
0.48 0.59 0.71 0.91 1.02 1.10 1.35 1.75 2.12 2.38 2.44 2.31 2.21 2.27 2.31 2.27 2.13 1.96 1.97 1.82 1.79 1.74 1.67 1.90 2.19 2.17 2.21 2.38 2.37 2.50 2.49 2.52 2.59 2.42 2.33 2.53 2.50 2.43 2.51 2.24 2.05 1.97 1.44
0.47 0.61 0.69 0.80 0.83 0.87 1.06 1.38 1.61 1.80 2.02 2.15 2.16 2.12 2.25 2.29 2.08 1.87 1.88 1.86 1.70 1.68 1.76 1.92 2.21 2.14 2.20 2.25 2.49 2.55 2.48 2.50 2.51 2.34 2.20 2.16 2.04 2.17 2.34 2.43 2.13 1.90 1.42
0.44 0.59 0.71 0.75 0.76 0.79 0.98 1.18 1.37 1.60 1.87 2.03 2.10 2.08 2.04 1.92 1.87 1.99 1.90 1.88 1.82 1.75 1.71 1.87 1.92 1.91 2.00 2.06 2.53 2.39 2.35 2.46 2.38 2.09 2.33 2.22 1.89 2.01 2.16 2.42 2.68 2.40 1.91
0.59 0.69 0.84 0.88 0.78 0.81 0.99 1.10 1.29 1.47 1.61 1.86 2.03 1.97 1.95 1.83 1.81 1.86 1.80 1.74 1.87 1.82 1.74 1.70 1.75 1.82 2.00 2.19 2.39 2.29 2.39 2.57 2.41 2.27 2.39 2.19 1.95 1.93 1.90 2.20 2.62 2.91 2.61
0.77 0.90 0.89 0.91 0.86 0.87 1.01 1.10 1.27 1.39 1.41 1.54 1.61 1.51 1.71 1.76 1.89 1.86 1.76 1.67 1.67 1.71 1.75 1.80 1.79 1.88 1.99 2.20 2.39 2.38 2.53 2.62 2.48 2.44 2.46 2.29 2.06 2.14 1.97 2.04 2.37 2.65 2.86
0.77 0.90 0.86 0.86 0.83 0.88 0.96 1.01 1.15 1.27 1.31 1.44 1.50 1.55 1.64 1.71 1.76 1.78 1.76 1.75 1.75 1.77 1.78 1.87 1.91 1.92 1.96 2.14 2.32 2.23 2.48 2.60 2.65 2.49 2.43 2.35 2.35 2.32 2.15 2.23 2.38 2.46 2.75
0.59 0.80 0.89 0.93 0.75 0.80 0.88 0.93 1.05 1.17 1.24 1.41 1.54 1.60 1.76 1.79 1.72 1.72 1.91 1.92 1.90 1.89 1.89 1.96 2.05 2.03 2.04 2.17 2.17 2.04 2.16 2.36 2.55 2.77 2.88 2.61 2.56 2.54 2.35 2.37 2.38 2.43 2.64
0.61 0.76 0.87 0.81 0.73 0.75 0.84 0.88 0.98 1.09 1.19 1.34 1.49 1.69 1.75 1.79 1.91 2.05 2.20 2.25 2.17 2.13 2.14 2.20 2.16 2.18 2.22 2.21 2.13 2.15 2.18 2.27 2.36 2.61 2.84 2.82 2.93 2.66 2.63 2.55 2.43 2.38 2.35
0.59 0.61 0.78 0.82 0.76 0.74 0.78 0.84 0.96 1.11 1.28 1.53 1.70 1.82 1.99 2.10 2.16 2.13 2.21 2.23 2.24 2.28 2.30 2.35 2.30 2.26 2.29 2.31 2.30 2.28 2.25 2.31 2.30 2.36 2.46 2.58 2.85 2.81 2.84 2.65 2.64 2.69 2.67
0.60 0.72 0.84 0.98 0.97 0.91 0.85 0.90 1.13 1.34 1.56 1.84 1.93 1.95 2.02 2.13 2.27 2.40 2.42 2.40 2.39 2.35 2.52 2.51 2.44 2.46 2.47 2.28 2.38 2.56 2.52 2.59 2.41 2.32 2.29 2.26 2.49 2.56 2.61 2.36 2.50 2.74 2.76
0.72 0.87 0.99 1.09 1.19 1.23 1.23 1.28 1.43 1.70 2.00 2.31 2.42 2.53 2.59 2.65 2.71 2.74 2.77 2.82 2.77 2.72 2.65 2.55 2.59 2.59 2.38 2.50 2.54 2.44 2.48 2.66 2.66 2.54 2.47 2.33 2.27 2.26 2.30 2.32 2.39 2.51 2.51
0.87 0.98 1.08 1.15 1.28 1.33 1.41 1.59 1.78 2.03 2.27 2.45 2.55 2.67 2.77 2.89 2.99 3.02 3.03 2.91 2.85 2.79 2.67 2.66 2.71 2.65 2.67 2.63 2.40 2.25 2.25 2.32 2.42 2.47 2.46 2.19 2.04 2.24 2.15 2.32 2.35 2.17 2.10
1.00 1.04 1.11 1.21 1.28 1.41 1.58 1.74 1.85 2.03 2.35 2.56 2.64 2.67 2.72 2.82 2.97 3.13 3.08 2.94 2.91 2.86 2.81 2.75 2.62 2.54 2.46 2.47 2.23 2.21 2.10 2.03 1.99 2.10 2.22 2.18 2.08 2.11 2.20 2.15 1.93 1.75 1.75
0.99 1.06 1.17 1.27 1.38 1.44 1.50 1.53 1.63 1.82 2.04 2.27 2.44 2.45 2.57 2.76 2.87 2.91 2.94 3.01 2.99 2.79 2.65 2.53 2.47 2.42 2.48 2.66 2.39 2.24 2.03 2.02 1.88 1.87 1.88 1.92 1.81 1.94 2.03 1.94 1.73 1.60 1.55
1.00 1.12 1.27 1.36 1.36 1.36 1.37 1.46 1.61 1.83 2.03 2.25 2.44 2.61 2.74 2.88 2.92 2.97 3.08 3.10 3.04 3.00 2.97 2.82 2.71 2.61 2.58 2.75 2.48 2.28 2.05 2.03 1.97 1.97 1.96 2.04 1.82 1.73 1.69 1.61 1.62 1.45 1.37
1.01 1.11 1.26 1.41 1.44 1.42 1.56 1.68 1.82 1.98 2.16 2.28 2.37 2.51 2.69 2.91 3.16 3.32 3.24 3.21 3.16 3.06 2.87 2.69 2.54 2.48 2.49 2.46 2.25 2.11 1.85 1.81 1.87 1.76 1.66 1.71 1.74 1.53 1.38 1.36 1.33 1.28 1.33
0.95 1.13 1.25 1.37 1.52 1.62 1.78 1.92 1.94 2.01 2.19 2.38 2.46 2.52 2.70 2.78 2.93 3.17 3.19 3.10 3.07 2.98 2.85 2.77 2.67 2.58 2.45 2.22 1.99 1.83 1.70 1.70 1.69 1.74 1.75 1.80 1.82 1.55 1.39 1.25 1.13 1.17 1.16
1.04 1.15 1.27 1.39 1.48 1.67 1.86 2.02 2.11 2.18 2.27 2.38 2.52 2.69 2.76 2.80 2.90 3.06 3.12 3.08 2.98 2.85 2.71 2.57 2.36 2.35 2.40 2.31 2.05 1.77 1.62 1.60 1.54 1.72 2.02 2.03 1.97 1.75 1.46 1.36 1.35 1.26 1.12
1.25 1.29 1.37 1.45 1.52 1.61 1.80 2.01 2.13 2.17 2.29 2.35 2.40 2.55 2.68 2.80 2.94 2.95 2.83 2.69 2.53 2.46 2.40 2.26 2.14 2.15 2.21 2.11 2.01 1.85 1.74 1.70 1.60 1.66 1.93 2.07 2.09 1.97 1.77 1.67 1.58 1.36 1.27
1.32 1.37 1.45 1.54 1.57 1.61 1.69 1.92 2.13 2.21 2.24 2.34 2.39 2.38 2.40 2.48 2.63 2.70 2.64 2.49 2.32 2.19 2.11 2.00 1.98 1.97 1.95 1.96 1.96 1.81 1.70 1.67 1.72 1.83 2.01 2.16 2.26 2.27 2.20 2.10 2.01 1.88 1.72
1.42 1.45 1.49 1.51 1.54 1.64 1.74 1.83 2.10 2.36 2.42 2.40 2.27 2.19 2.10 2.10 2.14 2.15 2.19 2.27 2.13 2.11 1.96 1.84 1.77 1.71 1.74 1.75 1.70 1.61 1.54 1.59 1.73 1.79 1.90 2.14 2.33 2.40 2.48 2.51 2.40 2.19 2.01